#timestamp,LO_Frequency,Hit 
1506200415.6,286047006.9,P
1506200435.4,286047002.0,N
1506200455.3,286046999.0,N
1506200475.1,286046999.7,N
1506200495.8,286047002.1,N
1506200515.7,286047000.3,N
1506200535.5,286047001.4,N
1506200555.3,286047000.4,N
1506200575.2,286047000.8,N
1506200595.9,286046998.9,N
1506200615.7,286046997.8,N
1506200635.5,286046996.0,N
1506200655.4,286046995.0,N
1506200675.2,286046995.1,N
1506200695.0,286046994.9,N
1506200695.9,286046994.9,N
1506200715.8,286046996.1,N
1506200735.6,286046993.8,N
1506200755.4,286046993.3,N
1506200775.3,286046996.4,N
1506200795.1,286046995.0,N
1506200796.0,286046995.0,N
1506200815.8,286046995.5,N
1506200835.7,286046996.3,N
1506200855.5,286046995.1,N
1506200875.3,286046997.5,N
1506200895.2,286046996.2,N
1506200915.9,286046995.6,N
1506200935.7,286046999.0,N
1506200955.5,286046996.7,N
1506200975.4,286046997.4,N
1506200995.2,286046997.3,N
1506201015.0,286046997.6,N
1506201015.9,286046997.6,N
1506201035.8,286046997.9,N
1506201055.6,286046997.6,N
1506201075.4,286046996.9,N
1506201095.3,286046994.9,N
1506201115.1,286046994.9,P
1506201135.8,286047001.0,N
1506201155.7,286047000.5,N
1506201175.5,286047000.1,N
1506201195.3,286046998.4,N
1506201215.2,286047002.5,N
1506201235.9,286047003.5,N
1506201255.7,286047003.2,N
1506201275.6,286047002.5,N
1506201295.4,286047004.0,N
1506201315.2,286047007.1,N
1506201335.1,286047005.1,N
1506201336.0,286047005.1,N
1506201355.8,286047004.0,N
1506201375.6,286047001.6,N
1506201395.4,286047004.5,N
1506201415.3,286047005.1,N
1506201435.1,286047004.1,N
1506201455.8,286047001.9,N
1506201475.7,286047006.0,N
1506201495.5,286047006.6,N
1506201515.3,286047006.8,N
1506201535.2,286047004.9,N
1506201555.9,286047005.0,N
1506201575.7,286047006.8,N
1506201595.6,286047008.2,N
1506201615.4,286047006.6,N
1506201635.2,286047005.5,N
1506201655.1,286047007.5,N
1506201656.0,286047007.5,N
1506201675.8,286047008.7,N
1506201695.6,286047006.7,N
1506201715.5,286047006.2,N
1506201735.3,286047009.2,P
1506201755.1,286047002.4,N
1506201775.9,286047002.8,N
1506201795.7,286047000.6,N
1506201815.5,286046999.9,N
1506201835.3,286047002.6,N
1506201855.2,286047002.9,N
1506201875.0,286047005.5,N
1506201875.9,286047005.5,N
1506201895.7,286047002.2,N
1506201915.6,286047005.9,N
1506201935.4,286047003.1,N
1506201955.2,286047005.9,N
1506201975.1,286047003.4,N
1506201976.0,286047003.4,N
1506201995.8,286047005.0,N
1506202015.6,286047005.9,N
1506202035.5,286047003.7,N
1506202055.3,286047004.1,N
1506202075.1,286047003.1,N
1506202095.9,286047002.2,N
1506202115.7,286047002.8,N
1506202135.5,286047000.6,N
1506202155.4,286047001.0,N
1506202175.2,286047000.2,N
1506202195.0,286047002.4,N
1506202195.9,286047002.4,N
1506202215.7,286047000.5,N
1506202235.6,286046999.7,N
1506202255.4,286047000.0,N
1506202275.2,286047001.0,N
1506202295.1,286047001.0,N
1506202296.0,286047001.0,N
1506202315.8,286046998.4,N
1506202335.6,286047000.6,N
1506202355.5,286047001.9,N
1506202375.3,286047002.8,N
1506202395.1,286047002.5,N
1506202415.9,286047000.3,N
1506202435.7,286046998.2,N
1506202455.5,286047002.4,N
1506202475.4,286047002.0,N
1506202495.2,286047003.2,N
1506202515.0,286047004.2,N
1506202515.9,286047004.2,N
1506202535.8,286047001.4,N
1506202555.6,286047002.1,N
1506202575.4,286047000.1,N
1506202595.3,286047002.3,N
1506202615.1,286047001.6,N
1506202616.0,286047001.6,N
1506202635.8,286047001.6,N
1506202655.6,286047001.7,N
1506202675.5,286047002.6,N
1506202695.3,286046999.7,N
1506202715.2,286047004.4,P
1506202735.9,286047002.9,N
1506202755.7,286047004.7,P
1506202775.5,286047003.7,N
1506202795.4,286047003.9,P
1506202815.2,286047004.3,P
1506202835.0,286047002.6,P
1506202836.0,286047002.6,P
1506202855.8,286046995.6,P
1506202875.6,286046996.2,N
1506202895.5,286046996.4,N
1506202915.3,286046995.5,N
1506202935.1,286047002.2,N
1506202955.9,286047000.9,N
1506202975.7,286047000.9,N
1506202995.5,286047000.6,N
1506203015.3,286046999.1,N
1506203035.2,286046994.9,N
1506203055.0,286046996.2,N
1506203055.9,286046996.2,N
1506203075.7,286046995.4,N
1506203095.6,286046995.4,N
1506203115.4,286046997.0,N
1506203135.2,286046998.8,N
1506203155.1,286047002.4,N
1506203156.0,286047002.4,N
1506203175.8,286046999.0,N
1506203195.6,286046996.8,N
1506203215.5,286046997.8,N
1506203235.3,286046997.3,N
1506203255.1,286046996.4,N
1506203275.9,286046997.7,N
1506203295.7,286047000.7,N
1506203315.5,286046996.5,N
1506203335.3,286046996.8,N
1506203355.2,286046998.1,N
1506203375.0,286046999.6,N
1506203375.9,286046999.6,N
1506203395.7,286047001.1,N
1506203415.6,286046998.8,N
1506203435.4,286046996.9,N
1506203455.2,286046999.6,N
1506203475.1,286046999.5,N
1506203476.0,286046999.5,N
1506203495.8,286046996.5,N
1506203515.6,286046999.3,N
1506203535.5,286046998.8,N
1506203555.3,286046997.0,N
1506203575.1,286046997.9,N
1506203595.9,286046995.5,N
1506203615.7,286046996.7,N
1506203635.5,286046998.8,N
1506203655.4,286046999.6,N
1506203675.2,286046999.4,N
1506203695.0,286047000.9,N
1506203695.9,286047000.9,N
1506203715.7,286046998.5,N
1506203735.6,286046999.5,N
1506203755.4,286046996.9,N
1506203775.2,286046999.5,N
1506203795.1,286046998.8,N
1506203796.0,286046998.8,N
1506203815.8,286047002.3,N
1506203835.6,286047004.3,N
1506203855.5,286047004.2,N
1506203875.3,286047009.1,P
1506203895.1,286047005.9,N
1506203915.9,286047002.4,N
1506203935.7,286047002.4,N
1506203955.5,286047002.7,N
1506203975.4,286046999.8,N
1506203995.2,286047004.4,N
